Flag for South Africa Weather past 2 weeks in Rustenburg, South Africa

Now
68 °F

Clear.


Feels Like: 68 °F
Forecast: 65 / 90 °F
Wind: 14 mph from Southeast

Location: Lanseria Civ / Mil

Current Time: Oct 24, 2014 at 10:44:54 PM

Latest Report: Oct 24, 2014 at 10:00 PM


Visibility: 10 mi

Pressure: 30.15 "Hg

Humidity: 43%

Dew point: 45 °F

Location of RustenburgLocation

Historic Weather in Rustenburg — Graph

°F

Rustenburg temperature yesterday

Maximum temperature yesterday: 84 °F (at 3:00 PM)
Minimum temperature yesterday: 55 °F (at 5:00 AM)
Average temperature yesterday: 67 °F

Past Weeks' High & Low Weather Summary

 TemperatureHumidityPressure
High93 °F (Oct 13, 3:00 PM)100% (Oct 12, 3:00 AM)30.36 "Hg (Oct 12, 3:00 AM)
Low48 °F (Oct 18, 4:00 AM)8% (Oct 13, 4:00 PM)29.71 "Hg (Oct 16, 4:00 PM)
Average70 °F45%30.15 "Hg
* Reported Oct 9 10:00 PM — Oct 24 10:00 PM, Rustenburg, Weather by CustomWeather, © 2014

Note: Actual official high and low records may vary slightly from our data, if they occured in-between our weather recording intervals... More about our weather records

Advertising

Rustenburg weather history for previous 24 hours

 ConditionsComfort  
Time TempWeatherWind HumidityBarometerVisibility
10:00 PM
Oct 24
68 °FClear.14 mph43%30.15 "Hg10 mi
9:00 PM70 °FClear.17 mph38%30.15 "Hg10 mi
8:00 PM72 °FClear.12 mph36%30.12 "Hg10 mi
7:00 PM77 °FPassing clouds.14 mph26%30.09 "HgN/A
6:00 PM77 °FPassing clouds.18 mph24%30.07 "HgN/A
5:00 PM79 °FPassing clouds.25 mph23%30.01 "HgN/A
4:00 PM86 °FPassing clouds.10 mph15%29.98 "HgN/A
3:00 PM88 °FPassing clouds.12 mph15%30.01 "HgN/A
2:00 PM86 °FPassing clouds.6 mph18%30.04 "HgN/A
1:00 PM86 °FPassing clouds.14 mph20%30.07 "HgN/A
12:00 PM82 °FPassing clouds.9 mph25%30.09 "HgN/A
11:00 AM81 °FSunny.8 mph26%30.09 "Hg10 mi
10:00 AM77 °FSunny.7 mph36%30.12 "Hg10 mi
9:00 AM73 °FSunny.3 mph41%30.12 "Hg10 mi
8:00 AM66 °FSunny.2 mph56%30.12 "Hg10 mi
7:00 AM63 °FSunny.3 mph68%30.12 "Hg10 mi
6:00 AM57 °FSunny.8 mph77%30.12 "Hg10 mi
5:00 AM59 °FPassing clouds.3 mph77%30.09 "HgN/A
4:00 AM61 °FCool.7 mph72%30.09 "HgN/A
3:00 AM63 °FMild.6 mph64%30.09 "HgN/A
2:00 AM63 °FMild.8 mph64%30.12 "HgN/A
1:00 AM64 °FMild.5 mph60%30.15 "HgN/A
12:00 AM63 °FMild.5 mph68%30.15 "HgN/A
11:00 PM
Oct 23
61 °FClear.5 mph72%30.15 "Hg10 mi
10:00 PM61 °FClear.No wind68%30.15 "Hg10 mi
Weather by CustomWeather, © 2014

See weather overviewHow to use our weather pages